Time,TemperatureF,DewpointF,PressureIn,WindDirection,WindDirectionDegrees,WindSpeedMPH,WindSpeedGustMPH,Humidity,HourlyPrecipIn,Conditions,Clouds,dailyrainin,SolarRadiationWatts/m^2,SoftwareType,DateUTC
2013-01-28 00:02:00,35.0,35.0,-100.00,South,175,2.0,7.0,99,0.00,,,0.48,0.000000,,2013-01-28 07:02:00,
2013-01-28 00:11:00,35.0,35.0,-100.00,South,175,2.0,7.0,99,0.00,,,0.48,0.000000,,2013-01-28 07:11:00,
2013-01-28 00:21:00,35.0,35.0,-100.00,South,175,2.0,7.0,99,0.00,,,0.48,0.000000,,2013-01-28 07:21:00,
2013-01-28 00:30:00,35.0,35.0,-100.00,South,180,3.0,7.0,99,0.00,,,0.43,0.000000,,2013-01-28 07:30:00,
2013-01-28 00:52:00,35.0,35.0,-100.00,South,180,3.0,7.0,99,0.00,,,0.43,0.000000,,2013-01-28 07:52:00,
2013-01-28 01:01:00,35.0,35.0,-100.00,South,180,3.0,7.0,99,0.00,,,0.43,0.000000,,2013-01-28 08:01:00,
2013-01-28 01:11:00,35.0,35.0,-100.00,South,180,3.0,7.0,99,0.00,,,0.43,0.000000,,2013-01-28 08:11:00,
2013-01-28 01:21:00,35.0,35.0,-100.00,South,180,3.0,7.0,99,0.00,,,0.43,0.000000,,2013-01-28 08:21:00,
2013-01-28 01:30:00,33.0,33.0,-100.00,SSW,209,2.0,7.0,99,0.05,,,0.44,0.000000,,2013-01-28 08:30:00,
2013-01-28 01:52:00,33.0,33.0,-100.00,SSW,209,2.0,7.0,99,0.05,,,0.44,0.000000,,2013-01-28 08:52:00,
2013-01-28 02:02:00,33.0,33.0,-100.00,SSW,209,2.0,7.0,99,0.05,,,0.44,0.000000,,2013-01-28 09:02:00,
2013-01-28 02:11:00,33.0,33.0,-100.00,SSW,209,2.0,7.0,99,0.05,,,0.44,0.000000,,2013-01-28 09:11:00,
2013-01-28 02:21:00,33.0,33.0,-100.00,SSW,209,2.0,7.0,99,0.05,,,0.44,0.000000,,2013-01-28 09:21:00,
2013-01-28 02:30:00,32.0,32.0,-100.00,SW,226,2.0,10.0,99,0.09,,,0.49,0.000000,,2013-01-28 09:30:00,
2013-01-28 02:52:00,32.0,32.0,-100.00,SW,226,2.0,10.0,99,0.09,,,0.49,0.000000,,2013-01-28 09:52:00,
2013-01-28 03:01:00,32.0,32.0,-100.00,SW,226,2.0,10.0,99,0.09,,,0.49,0.000000,,2013-01-28 10:01:00,
2013-01-28 03:11:00,32.0,32.0,-100.00,SW,226,2.0,10.0,99,0.09,,,0.49,0.000000,,2013-01-28 10:11:00,
2013-01-28 03:21:00,32.0,32.0,-100.00,SW,226,2.0,10.0,99,0.09,,,0.49,0.000000,,2013-01-28 10:21:00,
2013-01-28 03:30:00,32.0,32.0,-100.00,ESE,118,0.0,3.0,99,0.11,,,0.58,0.000000,,2013-01-28 10:30:00,
2013-01-28 03:52:00,32.0,32.0,-100.00,ESE,118,0.0,3.0,99,0.11,,,0.58,0.000000,,2013-01-28 10:52:00,
2013-01-28 04:02:00,32.0,32.0,-100.00,ESE,118,0.0,3.0,99,0.11,,,0.58,0.000000,,2013-01-28 11:02:00,
2013-01-28 04:11:00,32.0,32.0,-100.00,ESE,118,0.0,3.0,99,0.11,,,0.58,0.000000,,2013-01-28 11:11:00,
2013-01-28 04:21:00,32.0,32.0,-100.00,ESE,118,0.0,3.0,99,0.11,,,0.58,0.000000,,2013-01-28 11:21:00,
2013-01-28 04:30:00,32.0,32.0,-100.00,SSW,209,2.0,5.0,99,0.07,,,0.63,0.000000,,2013-01-28 11:30:00,
2013-01-28 04:52:00,32.0,32.0,-100.00,SSW,209,2.0,5.0,99,0.07,,,0.63,0.000000,,2013-01-28 11:52:00,
2013-01-28 05:03:00,32.0,32.0,-100.00,SSW,209,2.0,5.0,99,0.07,,,0.63,0.000000,,2013-01-28 12:03:00,
2013-01-28 05:11:00,32.0,32.0,-100.00,SSW,209,2.0,5.0,99,0.07,,,0.63,0.000000,,2013-01-28 12:11:00,
2013-01-28 05:22:00,32.0,32.0,-100.00,SSW,209,2.0,5.0,99,0.07,,,0.63,0.000000,,2013-01-28 12:22:00,
2013-01-28 05:30:00,32.0,32.0,-100.00,SSW,201,2.0,5.0,99,0.05,,,0.68,0.000000,,2013-01-28 12:30:00,
2013-01-28 05:52:00,32.0,32.0,-100.00,SSW,201,2.0,5.0,99,0.05,,,0.68,0.000000,,2013-01-28 12:52:00,
2013-01-28 06:02:00,32.0,32.0,-100.00,SSW,201,2.0,5.0,99,0.05,,,0.68,0.000000,,2013-01-28 13:02:00,
2013-01-28 06:11:00,32.0,32.0,-100.00,SSW,201,2.0,5.0,99,0.05,,,0.68,0.000000,,2013-01-28 13:11:00,
2013-01-28 06:22:00,32.0,32.0,-100.00,SSW,201,2.0,5.0,99,0.05,,,0.68,0.000000,,2013-01-28 13:22:00,
2013-01-28 06:30:00,32.0,32.0,-100.00,SSW,192,3.0,8.0,99,0.02,,,0.70,0.000000,,2013-01-28 13:30:00,
2013-01-28 06:53:00,32.0,32.0,-100.00,SSW,192,3.0,8.0,99,0.02,,,0.70,0.000000,,2013-01-28 13:53:00,
2013-01-28 07:02:00,32.0,32.0,-100.00,SSW,192,3.0,8.0,99,0.02,,,0.70,0.000000,,2013-01-28 14:02:00,
2013-01-28 07:12:00,32.0,32.0,-100.00,SSW,192,3.0,8.0,99,0.02,,,0.70,0.000000,,2013-01-28 14:12:00,
2013-01-28 07:22:00,32.0,32.0,-100.00,SSW,192,3.0,8.0,99,0.02,,,0.70,0.000000,,2013-01-28 14:22:00,
2013-01-28 07:30:00,32.0,32.0,-100.00,SSW,194,3.0,8.0,99,0.02,,,0.72,0.000000,,2013-01-28 14:30:00,
2013-01-28 07:53:00,32.0,32.0,-100.00,SSW,194,3.0,8.0,99,0.02,,,0.72,0.000000,,2013-01-28 14:53:00,
2013-01-28 08:03:00,32.0,32.0,-100.00,SSW,194,3.0,8.0,99,0.02,,,0.72,0.000000,,2013-01-28 15:03:00,
2013-01-28 08:12:00,32.0,32.0,-100.00,SSW,194,3.0,8.0,99,0.02,,,0.72,0.000000,,2013-01-28 15:12:00,
2013-01-28 08:23:00,32.0,32.0,-100.00,SSW,194,3.0,8.0,99,0.02,,,0.72,0.000000,,2013-01-28 15:23:00,
2013-01-28 08:30:00,32.0,32.0,-100.00,SSW,206,5.0,12.0,99,0.00,,,0.69,4.000000,,2013-01-28 15:30:00,
2013-01-28 08:53:00,32.0,32.0,-100.00,SSW,206,5.0,12.0,99,0.00,,,0.69,4.000000,,2013-01-28 15:53:00,
2013-01-28 09:03:00,32.0,32.0,-100.00,SSW,206,5.0,12.0,99,0.00,,,0.69,4.000000,,2013-01-28 16:03:00,
2013-01-28 09:12:00,32.0,32.0,-100.00,SSW,206,5.0,12.0,99,0.00,,,0.69,4.000000,,2013-01-28 16:12:00,
2013-01-28 09:22:00,32.0,32.0,-100.00,SSW,206,5.0,12.0,99,0.00,,,0.69,4.000000,,2013-01-28 16:22:00,
2013-01-28 09:30:00,33.0,32.0,-100.00,SW,227,3.0,11.0,97,0.02,,,-99.99,17.000000,,2013-01-28 16:30:00,
2013-01-28 09:53:00,33.0,32.0,-100.00,SW,227,3.0,11.0,97,0.02,,,-99.99,17.000000,,2013-01-28 16:53:00,
2013-01-28 10:01:00,33.0,32.0,-100.00,SW,227,3.0,11.0,97,0.02,,,-99.99,17.000000,,2013-01-28 17:01:00,
2013-01-28 10:11:00,33.0,32.0,-100.00,SW,227,3.0,11.0,97,0.02,,,-99.99,17.000000,,2013-01-28 17:11:00,
2013-01-28 10:22:00,33.0,32.0,-100.00,SW,227,3.0,11.0,97,0.02,,,-99.99,17.000000,,2013-01-28 17:22:00,
2013-01-28 10:30:00,34.0,32.0,-100.00,SW,236,3.0,7.0,92,0.03,,,0.69,23.000000,,2013-01-28 17:30:00,
2013-01-28 10:52:00,34.0,32.0,-100.00,SW,236,3.0,7.0,92,0.03,,,0.69,23.000000,,2013-01-28 17:52:00,
2013-01-28 11:02:00,34.0,32.0,-100.00,SW,236,3.0,7.0,92,0.03,,,0.69,23.000000,,2013-01-28 18:02:00,
2013-01-28 11:12:00,34.0,32.0,-100.00,SW,236,3.0,7.0,92,0.03,,,0.69,23.000000,,2013-01-28 18:12:00,
2013-01-28 11:23:00,34.0,32.0,-100.00,SW,236,3.0,7.0,92,0.03,,,0.69,23.000000,,2013-01-28 18:23:00,
2013-01-28 11:30:00,33.0,30.0,-100.00,WSW,246,3.0,8.0,88,0.05,,,0.74,29.000000,,2013-01-28 18:30:00,
2013-01-28 11:52:00,33.0,30.0,-100.00,WSW,246,3.0,8.0,88,0.05,,,0.74,29.000000,,2013-01-28 18:52:00,
2013-01-28 12:02:00,33.0,30.0,-100.00,WSW,246,3.0,8.0,88,0.05,,,0.74,29.000000,,2013-01-28 19:02:00,
2013-01-28 12:12:00,33.0,30.0,-100.00,WSW,246,3.0,8.0,88,0.05,,,0.74,29.000000,,2013-01-28 19:12:00,
2013-01-28 12:22:00,33.0,30.0,-100.00,WSW,246,3.0,8.0,88,0.05,,,0.74,29.000000,,2013-01-28 19:22:00,
2013-01-28 12:52:00,37.0,29.0,-100.00,West,280,6.0,11.0,74,0.03,,,0.77,58.000000,,2013-01-28 19:52:00,
2013-01-28 13:02:00,37.0,29.0,-100.00,West,280,6.0,11.0,74,0.03,,,0.77,58.000000,,2013-01-28 20:02:00,
2013-01-28 13:30:00,31.0,26.0,-100.00,West,261,7.0,13.0,81,-99.99,,,0.77,149.000000,,2013-01-28 20:30:00,
2013-01-28 13:52:00,31.0,26.0,-100.00,West,261,7.0,13.0,81,-99.99,,,0.77,149.000000,,2013-01-28 20:52:00,
2013-01-28 14:02:00,31.0,26.0,-100.00,West,261,7.0,13.0,81,-99.99,,,0.77,149.000000,,2013-01-28 21:02:00,
2013-01-28 14:11:00,31.0,26.0,-100.00,West,261,7.0,13.0,81,-99.99,,,0.77,149.000000,,2013-01-28 21:11:00,
2013-01-28 14:22:00,31.0,26.0,-100.00,West,261,7.0,13.0,81,-99.99,,,0.77,149.000000,,2013-01-28 21:22:00,
2013-01-28 14:30:00,35.0,26.0,-100.00,West,260,4.0,11.0,69,0.00,,,0.77,132.000000,,2013-01-28 21:30:00,
2013-01-28 14:53:00,35.0,26.0,-100.00,West,260,4.0,11.0,69,0.00,,,0.77,132.000000,,2013-01-28 21:53:00,
2013-01-28 15:11:00,35.0,26.0,-100.00,West,260,4.0,11.0,69,0.00,,,0.77,132.000000,,2013-01-28 22:11:00,
2013-01-28 15:22:00,35.0,26.0,-100.00,West,260,4.0,11.0,69,0.00,,,0.77,132.000000,,2013-01-28 22:22:00,
2013-01-28 15:30:00,29.0,26.0,-100.00,WSW,245,6.0,17.0,87,0.02,,,0.79,112.000000,,2013-01-28 22:30:00,
2013-01-28 15:52:00,29.0,26.0,-100.00,WSW,245,6.0,17.0,87,0.02,,,0.79,112.000000,,2013-01-28 22:52:00,
2013-01-28 16:02:00,29.0,26.0,-100.00,WSW,245,6.0,17.0,87,0.02,,,0.79,112.000000,,2013-01-28 23:02:00,
2013-01-28 16:11:00,29.0,26.0,-100.00,WSW,245,6.0,17.0,87,0.02,,,0.79,112.000000,,2013-01-28 23:11:00,
2013-01-28 16:22:00,29.0,26.0,-100.00,WSW,245,6.0,17.0,87,0.02,,,0.79,112.000000,,2013-01-28 23:22:00,
2013-01-28 16:30:00,31.0,23.0,-100.00,SW,216,3.0,11.0,72,0.00,,,0.79,57.000000,,2013-01-28 23:30:00,
2013-01-28 16:53:00,31.0,23.0,-100.00,SW,216,3.0,11.0,72,0.00,,,0.79,57.000000,,2013-01-28 23:53:00,
2013-01-28 17:02:00,31.0,23.0,-100.00,SW,216,3.0,11.0,72,0.00,,,0.79,57.000000,,2013-01-29 00:02:00,
2013-01-28 17:12:00,31.0,23.0,-100.00,SW,216,3.0,11.0,72,0.00,,,0.79,57.000000,,2013-01-29 00:12:00,
2013-01-28 17:21:00,31.0,23.0,-100.00,SW,216,3.0,11.0,72,0.00,,,0.79,57.000000,,2013-01-29 00:21:00,
2013-01-28 17:30:00,25.0,22.0,-100.00,East,97,0.0,4.0,89,0.00,,,0.77,14.000000,,2013-01-29 00:30:00,
2013-01-28 17:52:00,25.0,22.0,-100.00,East,97,0.0,4.0,89,0.00,,,0.77,14.000000,,2013-01-29 00:52:00,
2013-01-28 18:02:00,25.0,22.0,-100.00,East,97,0.0,4.0,89,0.00,,,0.77,14.000000,,2013-01-29 01:02:00,
2013-01-28 18:11:00,25.0,22.0,-100.00,East,97,0.0,4.0,89,0.00,,,0.77,14.000000,,2013-01-29 01:11:00,
2013-01-28 18:22:00,25.0,22.0,-100.00,East,97,0.0,4.0,89,0.00,,,0.77,14.000000,,2013-01-29 01:22:00,
2013-01-28 18:30:00,25.0,24.0,-100.00,East,90,0.0,2.0,94,0.00,,,0.76,0.000000,,2013-01-29 01:30:00,
2013-01-28 18:52:00,25.0,24.0,-100.00,East,90,0.0,2.0,94,0.00,,,0.76,0.000000,,2013-01-29 01:52:00,
2013-01-28 19:02:00,25.0,24.0,-100.00,East,90,0.0,2.0,94,0.00,,,0.76,0.000000,,2013-01-29 02:02:00,
2013-01-28 19:11:00,25.0,24.0,-100.00,East,90,0.0,2.0,94,0.00,,,0.76,0.000000,,2013-01-29 02:11:00,
2013-01-28 19:21:00,25.0,24.0,-100.00,East,90,0.0,2.0,94,0.00,,,0.76,0.000000,,2013-01-29 02:21:00,
2013-01-28 19:30:00,26.0,24.0,-100.00,SW,235,4.0,9.0,93,0.01,,,0.77,0.000000,,2013-01-29 02:30:00,
2013-01-28 19:53:00,26.0,24.0,-100.00,SW,235,4.0,9.0,93,0.01,,,0.77,0.000000,,2013-01-29 02:53:00,
2013-01-28 20:02:00,26.0,24.0,-100.00,SW,235,4.0,9.0,93,0.01,,,0.77,0.000000,,2013-01-29 03:02:00,
2013-01-28 20:11:00,26.0,24.0,-100.00,SW,235,4.0,9.0,93,0.01,,,0.77,0.000000,,2013-01-29 03:11:00,
2013-01-28 20:21:00,26.0,24.0,-100.00,SW,235,4.0,9.0,93,0.01,,,0.77,0.000000,,2013-01-29 03:21:00,
2013-01-28 20:30:00,24.0,22.0,-100.00,WSW,239,4.0,10.0,90,0.01,,,0.78,0.000000,,2013-01-29 03:30:00,
2013-01-28 20:53:00,24.0,22.0,-100.00,WSW,239,4.0,10.0,90,0.01,,,0.78,0.000000,,2013-01-29 03:53:00,
2013-01-28 21:02:00,24.0,22.0,-100.00,WSW,239,4.0,10.0,90,0.01,,,0.78,0.000000,,2013-01-29 04:02:00,
2013-01-28 21:11:00,24.0,22.0,-100.00,WSW,239,4.0,10.0,90,0.01,,,0.78,0.000000,,2013-01-29 04:11:00,
2013-01-28 21:21:00,24.0,22.0,-100.00,WSW,239,4.0,10.0,90,0.01,,,0.78,0.000000,,2013-01-29 04:21:00,
2013-01-28 21:30:00,21.0,19.0,-100.00,SSE,153,0.0,6.0,93,0.00,,,0.60,0.000000,,2013-01-29 04:30:00,
2013-01-28 21:52:00,21.0,19.0,-100.00,SSE,153,0.0,6.0,93,0.00,,,0.60,0.000000,,2013-01-29 04:52:00,
2013-01-28 22:03:00,21.0,19.0,-100.00,SSE,153,0.0,6.0,93,0.00,,,0.60,0.000000,,2013-01-29 05:03:00,
2013-01-28 22:12:00,21.0,19.0,-100.00,SSE,153,0.0,6.0,93,0.00,,,0.60,0.000000,,2013-01-29 05:12:00,
2013-01-28 22:21:00,21.0,19.0,-100.00,SSE,153,0.0,6.0,93,0.00,,,0.60,0.000000,,2013-01-29 05:21:00,
2013-01-28 22:30:00,21.0,19.0,-100.00,NNW,347,4.0,6.0,91,0.00,,,0.58,0.000000,,2013-01-29 05:30:00,
2013-01-28 22:52:00,21.0,19.0,-100.00,NNW,347,4.0,6.0,91,0.00,,,0.58,0.000000,,2013-01-29 05:52:00,
2013-01-28 23:01:00,21.0,19.0,-100.00,NNW,347,4.0,6.0,91,0.00,,,0.58,0.000000,,2013-01-29 06:01:00,
2013-01-28 23:11:00,21.0,19.0,-100.00,NNW,347,4.0,6.0,91,0.00,,,0.58,0.000000,,2013-01-29 06:11:00,
2013-01-28 23:21:00,21.0,19.0,-100.00,NNW,347,4.0,6.0,91,0.00,,,0.58,0.000000,,2013-01-29 06:21:00,
2013-01-28 23:30:00,21.0,18.0,-100.00,NNW,337,3.0,8.0,87,0.00,,,0.58,0.000000,,2013-01-29 06:30:00,
2013-01-28 23:52:00,21.0,18.0,-100.00,NNW,337,3.0,8.0,87,0.00,,,0.58,0.000000,,2013-01-29 06:52:00,